Location: Aiyekoto
(8.4333°N, 4.3667°E)
Time: 18:38:11
(UTC+00:00)

ISS - Visible Passes

Search period start: 11 August 2020 00:00
Search period end: 21 August 2020 00:00
Orbit: 418 x 420 km, 51.6° (Epoch: 11 August)

Date Brightness Start Highest point End Pass type
(mag) Time Alt. Az. Time Alt. Az. Time Alt. Az.
11 Aug -3.8 18:37:33 10° NNW 18:40:53 73° NE 18:43:45 13° SE visible
13 Aug -1.2 18:39:57 10° WNW 18:42:25 19° SW 18:44:54 10° S visible
18 Aug -2.7 04:45:36 10° SSW 04:48:48 43° SE 04:52:00 10° NE visible
19 Aug -1.5 04:00:31 18° SE 04:01:16 19° SE 04:03:44 10° ENE visible
20 Aug -2.7 04:48:40 20° W 04:50:14 29° NW 04:53:12 10° N visible
